Simultaneous Nadir Overpasses (SNOs) Predictions

Prediction of SNOs between GOES-16 and LANDSAT-8 Satellite Orbit:

Table of predicted SNOs for the next 14.0 days since TLE Epoch: 10/23/2025
Index Date Time (GOES-16) GOES-16 Lat,Lon LANDSAT-8 Lat,Lon Distance(km) Time Diff (sec)
1 10/24/2025 05:07:16 -0.05,-104.67 0.09,-104.02 73.74 80
2 10/26/2025 04:55:06 -0.06,-104.66 0.72,-101.07 408.97 80
3 10/26/2025 17:16:22 0.05,-104.71 0.36,-106.23 173.09 80
4 10/28/2025 17:06:51 0.06,-104.70 -0.26,-103.27 162.48 80
5 10/29/2025 05:28:14 -0.06,-104.66 -0.86,-108.46 432.17 80
6 10/30/2025 16:54:39 0.07,-104.70 -0.85,-100.31 498.40 80
7 10/31/2025 05:16:02 -0.06,-104.66 -0.26,-105.50 96.23 80
8 11/02/2025 05:01:10 -0.07,-104.65 0.38,-102.54 240.06 80
9 11/02/2025 17:22:25 0.06,-104.69 0.73,-107.69 342.49 80
10 11/04/2025 17:10:12 0.06,-104.68 0.10,-104.73 6.76 80
11 11/06/2025 17:00:39 0.06,-104.67 -0.56,-101.77 330.24 80
